Location: Kergrist
(48.3096°N, 3.3178°W)
Time: 18:55:28
(UTC+00:00)

Daily predictions for brighter satellites

Satellite Brightness Start Highest point End
(mag) Time Altitude Azimuth Time Altitude Azimuth Time Altitude Azimuth
NOSS 2-2 (C) 4.1 16:49:39 10° WSW 16:53:13 45° NW 16:57:24 10° NNE
Feng Yun 1-1 Rocket 4.5 16:49:29 10° SE 16:54:35 44° ENE 16:59:40 10° N
Cosmos 2219 Rocket 2.8 16:51:13 10° S 16:56:20 38° ESE 17:01:31 10° NE
BREEZE-M R/B 3.5 16:49:54 10° WSW 16:57:23 85° SSE 17:01:02 10° ENE
Cosmos 494 Rocket 4.0 16:56:04 10° SSW 17:01:20 80° ESE 17:06:37 10° NNE
Cosmos 1844 Rocket 3.2 16:55:50 10° NNW 17:01:23 67° WSW 17:06:55 10° SSE
Cosmos 1733 Rocket 3.8 16:57:46 10° N 17:01:41 31° ENE 17:05:36 10° SE
Cosmos 1536 4.2 17:00:52 10° NNE 17:03:42 18° ENE 17:06:32 10° ESE
Cosmos 1602 3.7 17:01:42 10° N 17:05:35 86° ENE 17:09:28 10° S
PSLV R/B 4.3 17:01:37 10° NNE 17:05:40 47° E 17:09:39 10° S
Cosmos 1269 Rocket 4.0 17:01:27 10° SSW 17:06:44 75° ESE 17:12:03 10° NNE
Cosmos 1500 4.1 17:03:57 10° NNE 17:07:13 26° ENE 17:10:25 10° SE
SMAP 3.3 17:02:48 10° SE 17:07:17 49° ENE 17:11:47 10° N
Cosmos 1869 Rocket 3.8 17:04:18 10° NNW 17:08:44 77° W 17:13:10 10° S
Cosmos 1340 2.7 17:05:05 10° NNW 17:08:53 88° W 17:12:40 10° S
CZ-4 R/B 2.9 17:09:15 10° E 17:11:25 15° ENE 17:13:35 10° NNE
Cosmos 1943 Rocket 4.1 17:12:45 10° N 17:14:18 11° NNE 17:15:49 10° NE
ALOS 3.6 17:10:22 10° S 17:14:49 44° W 17:19:19 10° NNW
H-2A R/B 2.9 17:11:58 10° SE 17:15:32 46° ENE 17:19:06 10° N
ATLAS 2AS CENTAUR R/B 3.3 17:10:18 10° SW 17:18:19 77° NW 17:26:21 10° NE
Lacrosse 5 rocket 2.6 17:15:13 10° S 17:18:52 27° SE 17:21:46 13° ENE
Cosmos 304 Rocket 3.7 17:14:29 10° NNW 17:19:20 84° ENE 17:24:09 10° SSE
COSMOS 2428 2.8 17:16:15 10° S 17:21:48 58° ESE 17:27:23 10° NE
YAOGAN 6 3.8 17:21:03 10° ESE 17:23:41 20° ENE 17:26:21 10° NNE
Cosmos 1302 Rocket 4.1 17:19:03 10° NNW 17:24:22 86° WSW 17:29:36 10° SSE
Meteor 1-5 Rocket 4.2 17:18:51 10° N 17:24:26 62° ENE 17:29:47 10° SSE
SL-4 R/B 2.1 17:24:28 10° SW 17:28:07 59° SSE 17:31:03 17° ENE
IRS-1C Rocket 4.1 17:24:33 10° SSE 17:29:50 88° ENE 17:35:09 10° NNW
Okean O Rocket 3.3 17:27:03 10° SSW 17:31:05 37° W 17:35:08 10° NNW
Cosmos 2251 Rocket 4.1 17:26:59 10° S 17:31:50 37° ESE 17:36:13 12° NE
SeaSat 1 4.1 17:31:15 14° NE 17:32:11 14° NE 17:34:44 10° N
NOSS 0 Rocket 4.5 17:26:46 10° S 17:32:26 39° ESE 17:37:30 13° NE
ATLAS 5 CENTAUR R/B 2.4 17:33:53 10° S 17:35:35 17° SE 17:35:55 17° ESE
Cosmos 2242 Rocket 4.4 17:32:35 10° SSE 17:36:33 30° E 17:40:14 12° NNE
Cosmos 1782 4.0 17:33:18 10° SSW 17:37:08 44° WNW 17:40:59 10° N
ERBS 4.0 17:34:57 10° WNW 17:38:03 35° SW 17:41:08 10° SSE
COSMOS 2455 4.3 17:33:28 10° W 17:38:45 31° NW 17:44:05 10° NNE
NOSS 2 (A) 4.1 17:36:38 10° NW 17:39:08 72° SW 17:41:28 10° SE
Cosmos 1862 Rocket 3.8 17:35:13 10° SSE 17:39:22 47° E 17:43:36 10° NNE
Cosmos 2333 4.4 17:35:07 10° SW 17:40:49 75° WNW 17:46:38 10° NNE
Cosmos 1315 Rocket 3.6 17:38:20 10° SSW 17:42:13 53° WNW 17:46:12 10° N
Cosmos 1346 Rocket 4.3 17:39:14 10° NNW 17:42:57 40° W 17:46:41 10° SSW
Okean-O 2.6 17:39:13 10° SSE 17:43:35 62° ENE 17:47:59 10° N
Genesis I 4.5 17:41:21 10° NNW 17:44:27 22° NE 17:45:01 21° NE
Cosmos 2322 4.2 17:40:46 10° SW 17:46:23 59° WNW 17:52:03 10° NNE
Meteor 2-6 Rocket 4.2 17:43:13 10° SSW 17:48:37 81° WNW 17:54:04 10° N
USA 215 3.6 17:44:09 16° NE 17:49:27 60° NNW 17:55:51 10° W
Cosmos 1666 3.2 17:48:35 10° N 17:52:03 34° ENE 17:55:28 10° SE
Cosmos 2278 Rocket 2.1 17:49:17 10° NNW 17:54:59 83° ENE 18:00:39 10° SSE
Envisat 2.9 17:50:14 10° SSE 17:55:17 73° ENE 18:00:22 10° N
Cosmos 1707 Rocket 4.3 17:51:05 10° SSW 17:55:27 54° WNW 17:59:52 10° N
STARLINK-67 3.2 17:53:59 10° W 17:56:40 44° NNW 17:57:16 37° NNE
Meteor 1-10 Rocket 4.4 17:54:43 10° SSW 18:00:15 75° WNW 18:05:53 10° N
Cosmos 2360 Rocket 3.7 17:57:54 10° WSW 18:02:54 31° NW 18:07:56 10° NNE
BREEZE-M DEB (TANK) 2.5 17:58:05 10° W 18:03:03 62° S 18:04:17 32° ESE
Cosmos 2369 Rocket 3.7 18:05:58 10° N 18:09:08 17° NNE 18:09:08 17° NNE
Cosmos 1992 Rocket 4.0 18:04:50 10° NNW 18:10:06 89° WSW 18:15:20 10° SSE
Shenzhou-11 Module 3.4 18:08:00 10° SW 18:10:19 25° S 18:10:38 24° SSE
SL-16 R/B 3.4 18:06:05 10° SSE 18:09:56 23° ESE 18:09:56 23° ESE
Cosmos 1908 Rocket 3.4 18:08:31 10° N 18:12:56 65° ENE 18:17:17 10° SSE
Nadezhda 4 Rocket 4.0 18:06:48 10° S 18:13:08 88° ESE 18:19:30 10° N
Cosmos 2333 Rocket 2.7 18:07:47 10° SW 18:13:28 61° WNW 18:18:32 13° NNE
Meteor 1-11 Rocket 4.2 18:07:52 10° NNW 18:13:49 68° W 18:19:42 10° S
STARLINK-46 2.6 18:11:33 10° WSW 18:14:04 74° SW 18:14:04 74° SW
COSMO-SKYMED 1 2.6 18:12:09 26° NNE 18:14:24 56° E 18:18:40 10° S
RESURS DK-1 2.7 18:10:45 10° SW 18:14:50 64° WNW 18:17:10 24° NNE
ISS -3.3 18:12:35 10° WNW 18:15:54 57° SSW 18:17:00 36° SSE
Cosmos 1553 Rocket 4.5 18:10:09 10° N 18:15:57 36° ENE 18:21:46 10° SE
Meteor 1-27 Rocket 3.8 18:15:20 10° SSW 18:21:03 82° WNW 18:26:57 10° N
Cosmos 1812 3.3 18:17:17 10° SSW 18:21:05 57° WNW 18:24:35 12° N
Cosmos 2237 Rocket 2.1 18:17:10 10° SSW 18:22:49 70° ESE 18:25:48 29° NE
YAOGAN 1 2.5 18:20:38 10° SSE 18:24:53 63° ENE 18:29:12 10° N
BREEZE-M DEB (TANK) 2.6 18:22:21 10° WNW 18:26:55 47° SSW 18:27:30 40° S
Cosmos 1900 4.4 18:26:36 10° NW 18:31:31 77° WSW 18:35:41 14° SSE
NOSS 3-4 (A) 4.4 18:26:00 10° WSW 18:31:46 42° NW 18:35:44 21° NNE
NOSS 3-4 (C) 4.4 18:26:06 10° WSW 18:31:52 42° NW 18:35:50 21° NNE
Cosmos 2026 Rocket 3.8 18:29:54 10° S 18:35:51 62° E 18:40:53 15° NNE
Ariane Rocket 4.2 18:40:38 27° NNE 18:40:38 27° NNE 18:43:12 10° N
Cosmos 2219 Rocket 3.3 18:34:59 10° WSW 18:40:16 41° NW 18:44:27 16° NNE
Cosmos 1536 4.0 18:36:32 10° NNW 18:40:23 43° W 18:44:11 10° SSW
Okean 1-7 3.2 18:38:40 10° S 18:42:13 56° SSE 18:42:13 56° SSE
Meteor 1-18 Rocket 4.5 18:39:42 10° SSE 18:44:37 47° ESE 18:44:37 47° ESE
CZ-4 R/B 1.8 18:42:08 10° S 18:46:01 60° WSW 18:49:53 10° NNW
Cosmos 1417 Rocket 4.4 18:40:51 10° N 18:46:53 54° ENE 18:48:46 40° SE
Exosat Rocket 4.2 18:44:23 10° SW 18:49:31 51° WNW 18:52:17 24° N
Cosmos 1980 3.9 18:47:33 10° SW 18:53:10 69° WNW 18:55:38 35° NNE
Cosmos 2297 3.5 18:49:38 10° NNW 18:55:23 80° ENE 18:56:48 53° SE
YAOGAN 6 4.3 18:53:49 10° SSW 18:57:01 32° W 19:00:16 10° NNW
Lacrosse 5 rocket 1.8 18:53:40 10° WSW 18:57:26 57° WNW 18:57:26 57° WNW
Cosmos 1627 Rocket 4.4 18:52:47 10° S 18:58:55 86° W 19:05:05 10° N
Cosmos 1943 Rocket 3.4 18:54:36 10° NNW 18:57:44 28° N 18:57:44 28° N
SKYMED 2 4.4 19:00:50 31° NNW 19:02:31 48° WNW 19:06:41 10° SW
CSL-04 Rocket 4.0 18:57:49 10° S 19:03:03 64° WSW 19:08:19 10° NNW
COSMOS 2428 4.3 19:01:29 10° WSW 19:06:26 30° NW 19:09:50 17° N
Cosmos 1782 Rocket 4.2 19:02:50 10° NNW 19:12:08 - S 19:06:21 51° NW
SL-4 R/B 3.1 19:03:59 10° W 19:06:39 39° WNW 19:06:39 39° WNW
SeaSat 1 3.7 19:11:02 31° N 19:11:02 31° N 19:13:40 10° NNW
ATLAS 2AS CENTAUR R/B 4.2 19:03:26 10° W 19:10:35 33° NNW 19:14:11 24° NNE
USA 215 3.9 19:31:30 42° N 19:31:52 42° N 19:37:55 10° WNW
SL-16 R/B 3.4 19:48:24 10° SW 19:51:52 37° SW 19:51:52 37° SW
Cosmos 2369 Rocket 4.1 19:49:07 10° NNW 19:50:56 21° NNW 19:50:56 21° NNW
Cosmos 2237 Rocket 4.0 20:02:43 10° W 20:07:25 26° NW 20:07:40 26° NW
Cosmos 2344 4.2 19:59:54 10° NW 20:09:11 73° NE 20:09:11 73° NE
